Location: Lazkuyu Tepesi
(38.8303°N, 32.2765°E)
Time: 09:29:01
(UTC+00:00)

Daily predictions for brighter satellites

Satellite Brightness Start Highest point End
(mag) Time Altitude Azimuth Time Altitude Azimuth Time Altitude Azimuth
Cosmos 1782 4.4 17:18:57 10° ESE 17:20:46 14° E 17:22:37 10° NE
Cosmos 2151 Rocket 3.5 17:17:33 10° S 17:21:54 81° E 17:26:16 10° N
Meteor 2-1 Rocket 4.3 17:17:06 10° S 17:22:41 62° E 17:28:11 10° NNE
Okean 2 Rocket 3.2 17:18:26 10° S 17:22:49 60° E 17:27:15 10° NNE
ATLAS 3B R/B 3.1 17:16:36 10° NNW 17:24:19 65° NE 17:31:27 10° SE
Cosmos 2100 Rocket 4.1 17:20:53 10° S 17:26:58 60° E 17:33:09 10° NNE
SL-4 R/B 2.3 17:25:09 10° WNW 17:28:52 55° SW 17:32:40 10° SE
Gbstr 26 Del rocket 4.3 17:26:06 10° NW 17:31:05 38° NNE 17:35:14 10° E
ERS-1 Rocket 3.6 17:29:36 10° SE 17:34:11 38° ENE 17:38:48 10° N
ASTEX 1 3.4 17:29:53 10° SSE 17:34:46 68° E 17:39:42 10° N
Meteor 2-3 Rocket 3.8 17:29:27 10° N 17:35:04 64° E 17:40:41 10° SSE
SL-24 R/B 4.3 17:31:14 10° NNE 17:35:33 57° E 17:40:24 10° S
Cosmos 909 Rocket 4.4 17:32:03 10° S 17:38:04 40° ESE 17:43:52 10° NE
CSL-04 Debris 4.2 17:34:23 10° SSE 17:39:46 76° ENE 17:45:13 10° N
Okean O Rocket 3.4 17:38:27 10° ESE 17:41:01 16° ENE 17:43:36 10° NNE
Cosmos 1455 Rocket 3.5 17:37:58 10° SSE 17:42:05 41° E 17:46:13 10° NNE
SJ 16-02 4.2 17:42:42 10° WNW 17:44:43 13° W 17:46:43 10° WSW
Cosmos 1892 Rocket 4.4 17:42:56 10° NNE 17:46:49 32° ENE 17:50:04 13° SE
Cosmos 2082 Rocket 2.3 17:41:56 10° S 17:47:28 54° ESE 17:53:02 10° NNE
Cosmos 1461 4.2 17:49:29 15° SE 17:50:20 16° ESE 17:52:36 10° ENE
Cosmos 968 Rocket 3.7 17:47:29 10° NNW 17:52:43 74° WSW 17:57:54 10° S
Okean 1 Rocket 3.4 17:48:55 10° SSW 17:53:16 68° W 17:57:40 10° N
PAYLOAD B 4.3 17:47:53 10° SSE 17:53:17 61° ENE 17:58:44 10° N
NOSS 3-3 (A) 3.5 17:49:06 10° SSW 17:53:55 58° ESE 17:59:30 10° NE
GEOS 3 Rocket 3.7 17:51:43 13° SE 17:56:28 74° NE 18:01:50 10° NNW
Cosmos 1725 Rocket 4.0 17:50:38 10° S 17:56:47 63° E 18:02:57 10° NNE
Cosmos 2228 3.4 17:56:23 11° SSE 18:00:01 38° E 18:03:50 10° NNE
Okean-O 3.9 17:57:49 16° ESE 18:00:14 25° ENE 18:03:47 10° NNE
Cosmos 1452 Rocket 3.9 17:55:26 10° SSW 18:00:38 69° WNW 18:05:51 10° NNE
BREEZE-M DEB (TANK) 3.3 17:55:43 10° SW 18:04:04 57° SSE 18:06:56 10° ENE
Meteor 1-27 4.2 17:59:18 10° S 18:04:54 71° E 18:10:29 10° NNE
Cosmos 1697 Rocket 3.5 18:00:06 10° NNW 18:05:29 49° WSW 18:10:51 10° S
Cosmos 1741 Rocket 4.0 18:02:04 10° NNW 18:07:24 88° ENE 18:11:57 14° SSE
ADEOS 3.7 18:03:20 15° SSE 18:07:38 59° ENE 18:12:45 10° N
IRAS Rocket 4.3 18:02:37 10° SSE 18:08:04 79° WSW 18:13:35 10° NNW
Tsikada Rocket 4.5 18:03:09 10° N 18:08:56 41° ENE 18:12:58 19° SE
USA 186 3.3 18:08:52 16° ENE 18:08:57 16° ENE 18:10:41 10° NNE
Cosmos 1302 Rocket 3.9 18:05:57 10° SSW 18:11:06 88° ESE 18:16:19 10° NNE
Cosmos 2016 Rocket 3.9 18:05:57 10° S 18:12:12 77° E 18:18:24 10° N
CZ-4C R/B 4.1 18:09:45 10° W 18:13:13 25° NW 18:17:23 10° NNE
ISS -0.7 18:12:10 10° WNW 18:14:11 15° NNW 18:16:11 10° NNE
SL-16 R/B 3.9 18:14:28 10° N 18:18:35 20° NE 18:21:28 14° E
Cosmos 2084 Rocket 4.2 18:16:58 10° NNW 18:20:56 39° NE 18:22:53 24° ESE
BREEZE-M DEB 3.9 18:16:03 10° SW 18:21:15 49° SE 18:26:15 10° ENE
USA 305 2.7 18:18:26 10° NW 18:22:29 60° NE 18:23:56 32° ESE
NOSS 3-3 (C) 3.5 18:20:02 10° SSW 18:25:01 86° ESE 18:30:52 10° NE
COSMOS 2406 3.4 18:19:42 10° S 18:25:13 51° ESE 18:30:46 10° NNE
SL-08 R/B 3.3 18:22:15 10° NNE 18:27:04 89° ESE 18:31:46 10° SSW
Meteor 1-31 Rocket 4.4 18:24:58 10° SSW 18:27:59 27° W 18:31:00 10° NW
DELTA 2 R/B (1) 3.6 18:22:48 10° W 18:28:24 85° N 18:33:13 14° E
Terra 2.1 18:27:23 15° S 18:31:14 65° W 18:35:55 10° NNW
Meteor 2-12 Rocket 4.4 18:26:57 10° N 18:33:02 73° E 18:37:04 22° SSE
Cosmos 1980 Rocket 2.5 18:30:22 10° NNW 18:36:00 65° WSW 18:39:50 21° S
MetOp-B 4.5 18:32:28 15° S 18:36:56 64° WSW 18:42:16 10° NNW
CZ-4 R/B 3.3 18:35:17 10° SSW 18:38:11 22° W 18:41:05 10° NW
BREEZE-M DEB (TANK) 4.3 18:34:26 10° WNW 18:38:20 43° SSW 18:44:47 21° SSE
YAOGAN 11 4.0 18:37:01 10° NNE 18:41:28 83° ESE 18:44:34 20° S
Cosmos 2061 Rocket 3.9 18:36:29 12° S 18:42:16 82° E 18:48:34 10° N
Cosmos 2333 Rocket 3.5 18:39:06 10° N 18:43:56 28° ENE 18:46:04 22° E
Cosmos 1743 3.5 18:41:14 10° NNW 18:44:02 35° W 18:45:16 24° SW
Cosmos 1933 4.0 18:44:27 33° E 18:44:27 33° E 18:47:36 10° NNE
Delta 2 Rocket 4.0 18:47:20 10° WSW 18:48:59 26° SW 18:48:59 26° SW
Cosmos 1375 Rocket 4.4 18:45:52 10° SSW 18:52:16 74° ESE 18:58:49 10° NNE
SPOT 3 Rocket 3.9 18:52:55 37° ESE 18:54:25 48° ENE 18:59:21 10° N
CZ-4B R/B 4.1 18:51:38 15° S 18:56:07 46° W 19:01:32 10° NNW
Ariane Rocket 3.6 18:57:02 35° E 18:58:08 39° ENE 19:02:49 10° N
Cosmos 2098 Rocket 4.0 18:58:41 34° E 18:58:41 34° E 19:02:40 10° NNE
Cosmos 1626 Rocket 3.5 18:54:15 10° N 18:58:36 64° E 18:59:19 54° SE
Cosmos 2360 Rocket 3.7 18:57:32 10° N 19:01:55 22° NE 19:03:37 20° E
Spot 2 Rocket 3.7 19:01:12 30° S 19:03:34 63° W 19:08:34 10° NNW
Cosmos 220 Rocket 4.0 19:04:06 53° ENE 19:04:06 53° ENE 19:07:40 10° NNE
Chandra Rocket (1) 4.0 18:46:00 10° W 19:07:12 47° SSW 19:09:56 35° SSE
ATLAS 3B R/B 4.4 19:08:27 10° NW 19:14:23 26° WSW 19:19:24 12° SSW
Longmarch 3A Rocket 4.4 19:14:26 10° SW 19:14:43 10° SW 19:14:43 10° SW
Cosmos 2219 Rocket 4.0 19:12:06 10° N 19:15:57 18° NE 19:17:33 17° ENE
Okean O Rocket 2.4 19:15:30 33° SW 19:16:49 43° W 19:20:55 10° NNW
Gbstr 26 Del rocket 3.7 19:13:03 10° WNW 19:17:29 39° SW 19:17:40 39° SW
Cosmos 2151 2.8 19:17:11 10° N 19:21:10 81° NE 19:21:10 81° NE
Cosmos 1891 Rocket 4.4 19:20:41 34° S 19:23:30 84° W 19:29:35 10° N
Cosmos 1461 4.1 19:22:53 10° WSW 19:26:18 35° NW 19:29:43 10° NNE
CZ-4B R/B 3.1 19:27:58 75° SE 19:28:20 83° ENE 19:33:09 10° NNW
Fengyun 1C 4.5 19:30:40 64° ESE 19:31:15 70° ENE 19:36:28 10° N
Cosmos 2322 Rocket 2.8 19:27:52 10° N 19:33:14 41° ENE 19:33:58 40° E
Okean 1-7 Rocket 4.3 19:29:53 10° N 19:33:33 43° NE 19:33:33 43° NE
Cosmos 1437 Rocket 3.8 19:36:11 36° WNW 19:36:11 36° WNW 19:39:27 10° N
Okean-O 4.2 19:35:08 24° SW 19:36:22 27° W 19:40:06 10° NW
Milstar 3 4.2 19:31:53 10° WSW 19:37:46 27° SSW 19:37:46 27° SSW
Cosmos 1777 Rocket 4.4 19:33:53 10° N 19:38:55 47° ENE 19:39:00 47° ENE
IRS-1C Rocket 4.0 19:39:14 68° S 19:39:54 82° WSW 19:45:12 10° NNW
Nadezhda 4 Rocket 3.9 19:41:08 10° N 19:47:14 68° E 19:47:52 63° ESE
Meteor 2-10 4.1 19:48:43 10° N 19:54:28 77° E 19:54:40 76° ESE
Cosmos 1486 Rocket 3.9 19:51:55 10° NNW 19:57:02 79° NE 19:57:02 79° NE
Cosmos 2278 3.5 19:52:21 10° NNW 19:58:06 87° WSW 19:58:19 83° S
Meteor 1-5 Rocket 4.1 19:52:52 10° N 19:58:41 90° WSW 19:59:05 79° S
SL-16 R/B 2.4 19:57:30 10° NNW 20:03:05 60° WSW 20:03:19 60° WSW
Cosmos 2195 Rocket 4.5 19:59:17 10° N 20:05:28 63° E 20:05:36 63° E
Cosmos 1825 Rocket 4.4 20:04:34 10° N 20:07:46 49° NNW 20:07:46 49° NNW
Cosmos 2026 Rocket 4.2 20:03:58 10° N 20:10:15 58° E 20:10:23 58° E
DELTA 2 R/B (1) 3.8 20:09:17 10° W 20:13:54 62° W 20:13:54 62° W
Cosmos 540 Rocket 3.7 20:18:42 65° NNW 20:18:42 65° NNW 20:23:13 10° NNE
Cosmos 2333 Rocket 3.0 20:23:00 10° NW 20:28:05 41° W 20:28:05 41° W
Cosmos 2297 Rocket 4.3 20:35:26 14° ENE 20:35:26 14° ENE 20:36:39 10° NE
ARIANE 5 R/B 4.5 20:34:30 24° NE 20:34:30 24° NE 20:36:55 10° N
NOSS 3-4 (A) 3.8 20:26:56 10° NW 20:34:02 82° WSW 20:34:49 73° S
NOSS 3-4 (C) 3.8 20:27:34 10° NW 20:34:40 82° WSW 20:35:28 73° S
USA 234 3.4 20:39:24 10° NE 20:44:47 58° E 20:44:47 58° E
Cosmos 2360 Rocket 2.8 20:40:42 10° NNW 20:45:21 48° WNW 20:45:21 48° WNW
Cosmos 1092 Rocket 4.1 20:49:54 10° N 20:55:38 70° WNW 20:55:38 70° WNW
Cosmos 2219 Rocket 2.7 20:54:46 10° NNW 20:59:14 53° NW 20:59:14 53° NW
Cosmos 2322 Rocket 3.8 21:12:23 10° NW 21:15:45 24° W 21:15:45 24° W
Cosmos 841 Rocket 4.5 21:29:05 44° N 21:29:05 44° N 21:32:45 10° NNE
Cosmos 2279 Rocket 4.4 21:29:54 55° WNW 21:29:54 55° WNW 21:35:37 10° N
Cosmos 2237 Rocket 3.5 21:30:36 10° N 21:35:36 31° ENE 21:35:41 31° ENE
CZ-2C R/B 3.7 21:37:19 38° NE 21:37:19 38° NE 21:41:16 10° N
Meteor 1-11 Rocket 4.3 21:34:33 10° N 21:38:54 53° NNE 21:38:54 53° NNE
Cosmos 2227 Rocket 3.8 21:44:30 24° ENE 21:44:30 24° ENE 21:47:26 10° NE
COSMOS 2428 3.3 21:38:35 10° NNW 21:42:51 52° NNW 21:42:51 52° NNW
ACS3 Solar Sail 3.2 21:40:57 10° NE 21:45:00 26° ENE 21:45:00 26° ENE
Cosmos 2263 Rocket 4.1 21:56:11 20° ENE 21:56:11 20° ENE 21:58:44 10° NE
Meteor 1-27 Rocket 4.2 21:56:56 59° NNE 21:56:56 59° NNE 22:01:32 10° N
Cosmos 2266 Rocket 4.3 21:58:19 10° NNW 22:03:14 57° NW 22:03:14 57° NW
Iridium 4 Rocket 4.4 22:11:57 49° NE 22:11:57 49° NE 22:16:34 10° N
Cosmos 2297 Rocket 2.9 22:17:12 49° NNW 22:17:12 49° NNW 22:21:50 10° NNE
CZ-2C R/B 4.0 22:16:19 10° N 22:21:10 46° NW 22:21:10 46° NW
Cosmos 1655 Rocket 4.1 22:21:05 10° N 22:26:42 74° N 22:26:42 74° N
USA 234 4.4 22:22:44 10° NE 22:28:38 38° NNW 22:32:06 22° W
SeaSat 1 3.3 22:34:43 47° NNE 22:34:43 47° NNE 22:38:25 10° NNW
Meteor 2-10 Rocket 4.0 22:36:20 10° N 22:40:59 63° N 22:40:59 63° N
Meteor 1-18 Rocket 4.5 22:49:51 64° N 22:49:51 64° N 22:54:36 10° N
Cosmos 1244 Rocket 4.4 22:49:05 10° N 22:55:00 81° NNE 22:55:00 81° NNE
Meteor 2-11 Rocket 4.5 22:51:58 10° N 22:57:32 71° NW 22:57:32 71° NW
Lacrosse 4 Rocket 3.6 23:01:08 20° NNW 23:01:08 20° NNW 23:03:02 10° N
Cosmos 2219 3.7 23:04:46 49° E 23:04:46 49° E 23:09:44 10° NNE
SL-16 R/B 3.0 23:01:45 10° NNW 23:07:14 47° ENE 23:08:40 39° ESE
Cosmos 489 Rocket 4.3 23:12:33 83° W 23:12:41 84° WNW 23:19:04 10° NNE
IDEFIX/ARIANE 42P 3.1 23:07:57 10° NNE 23:12:47 50° E 23:12:47 50° E
Cosmos 1151 Rocket 4.3 23:15:33 38° N 23:15:33 38° N 23:18:17 10° N
S3M 4.2 23:14:46 55° ESE 23:15:31 58° E 23:21:32 10° NNE
CZ-2C R/B 4.5 23:18:46 18° WNW 23:18:46 18° WNW 23:20:47 10° NW
NPP 4.4 23:13:09 10° NNE 23:18:17 43° E 23:18:30 43° ESE
Cosmos 2237 Rocket 3.6 23:14:31 10° NW 23:17:27 26° WNW 23:17:27 26° WNW
CENTAUR R/B 3.4 23:20:15 29° ESE 23:20:21 29° ESE 23:25:30 10° NE
Cosmos 2227 Rocket 3.1 23:26:17 36° WNW 23:26:26 36° WNW 23:31:38 10° N
ACS3 Solar Sail 2.3 23:22:46 10° N 23:28:21 43° WNW 23:28:30 43° WNW
Cosmos 2263 Rocket 2.7 23:37:50 45° WNW 23:37:59 45° WNW 23:43:21 10° N
BREEZE-M DEB (TANK) 4.4 23:30:26 10° W 23:41:39 40° NNW 23:45:35 10° NE
MSX 3.7 23:43:06 10° N 23:48:52 76° WNW 23:49:33 67° SW
Cosmos 1709 Rocket 4.0 23:43:34 10° N 23:49:47 81° E 23:51:40 48° SSE
Cosmos 1943 4.3 23:47:37 10° N 23:52:55 41° ENE 23:58:10 10° SE
Cosmos 1666 Rocket 4.2 23:49:05 10° N 23:53:25 52° E 23:54:01 48° ESE
